Volver al catálogo

SL-14 DEB

ActivoPO
NORAD 26027·DEBRIS·🇷🇺 Russia

Lanzado Sep 28, 1991 desde Plesetsk Cosmodrome

Loading…

Próximos Pases (próximas 24 horas)

TLE

ActualizadoSource: Space-Track

Época: Sep 12, 2026, 01:30 UTC

1 26027U 91068AN  26255.06283017  .00000300  00000-0  22435-2 0  9999
2 26027  83.2840 117.4920 0112649 217.2332 297.8137 12.35761167225321

Sigue SL-14 DEB en tiempo real con AllMySat

Download on the App Store